Regional Weather Roundup
Issued by NWS

Home | Current Version | Previous Version | Graphics & Text | Print | Product List | Glossary On
Versions: 1 2 3 4 5 6 7 8 9 10 11 12 13 14 15 16 17 18 19 20 21 22 23 24 25 26 27 28 29 30 31 32 33 34 35 36 37 38 39 40 41 42 43 44 45 46 47 48 49 50
000
ASUS43 KDMX 180006
RWRIA

WEATHER ROUNDUP FOR IOWA
NATIONAL WEATHER SERVICE DES MOINES IA
600 PM CST FRI NOV 17 2017

NOTE: "FAIR" INDICATES FEW OR NO CLOUDS BELOW 12,000 FEET WITH NO
SIGNIFICANT WEATHER AND/OR OBSTRUCTIONS TO VISIBILITY.

* - THESE STATIONS ARE NOT NWS STATIONS...THUS NOT UNDER NWS
QUALITY CONTROL.  THEY ALSO DO NOT REPORT WEATHER SUCH
AS PRECIPITATION OR FOG.

IAZ001>003-012>014-020>022-031>034-043>046-180100-
   NORTHWEST IOWA

CITY           SKY/WX    TMP DP  RH WIND       PRES   REMARKS
CARROLL *      FOG       48  48 100 CALM      29.54R VSB 1/4
CHEROKEE *     MOCLDY    49  45  85 N6        29.59R
DENISON *      CLOUDY    50  50 100 CALM      29.55F FOG
LE MARS *      CLOUDY    50  41  71 N18       29.59R
ORANGE CITY *  LGT RAIN  48  43  81 N15       29.61R
SHELDON *      CLOUDY    45  37  76 N13       29.61R
SIOUX CITY     PTCLDY    47  39  74 N12       29.59R
6HR MIN TEMP:  47; 6HR MAX TEMP:  59;

SPENCER        CLOUDY    46  40  79 N9        29.61R
6HR MIN TEMP:  46; 6HR MAX TEMP:  53;

STORM LAKE *   CLOUDY    48  46  93 CALM      29.57R FOG
$$

IAZ055>058-069>071-079>083-090>094-180100-
   SOUTHWEST IOWA

CITY           SKY/WX    TMP DP  RH WIND       PRES   REMARKS
ATLANTIC *     FOG       52  52 100 NE3       29.53S VSB<1/4
AUDUBON *      FOG       50  48  93 E3        29.54S VSB 1
CLARINDA *       N/A     55  55 100 CALM        N/A  FOG
COUNCIL BLFS * CLOUDY    54  54 100 NE5       29.53R FOG
CRESTON *      FOG       52  52 100 SE6       29.55R VSB<1/4
HARLAN  *      FOG       52  52 100 SE3       29.56S VSB<1/4
LAMONI         FOG       54  54 100 S6        29.54R VSB 1/4
6HR MIN TEMP:  50; 6HR MAX TEMP:  54; 6HR PCP:  0.02;

RED OAK *      CLOUDY    55  55 100 CALM      29.53R FOG
SHENANDOAH *   CLOUDY    57  55  94 NE6       29.52R FOG
$$

IAZ047>049-059>061-072>074-084-180100-
   CENTRAL IOWA

CITY           SKY/WX    TMP DP  RH WIND       PRES   REMARKS
AMES           CLOUDY    46  46 100 CALM      29.56R FOG
6HR MIN TEMP:  46; 6HR MAX TEMP:  48; 6HR PCP: TRACE;

ANKENY *       CLOUDY    48  46  93 CALM      29.56R FOG
BOONE *        FOG       46  46 100 NE5       29.54R VSB 1/4
CHARITON *     FOG       54  54 100 SW5       29.55R VSB 1/4
DES MOINES     CLOUDY    51  49  92 E3        29.54R FOG
6HR MIN TEMP:  47; 6HR MAX TEMP:  52; 6HR PCP: TRACE;

GRINNELL*      CLOUDY    46  44  93 SE7       29.56S FOG
KNOXVILLE *    CLOUDY    52  50  93 SE7       29.54R FOG
MARSHALLTOWN   CLOUDY    44  43  96 NE3       29.56R FOG
6HR MIN TEMP:  41; 6HR MAX TEMP:  44; 6HR PCP:  0.01;

NEWTON *       CLOUDY    46  46 100 SE5       29.55S FOG
PELLA *        CLOUDY    48  47  95 SE5       29.56S FOG
PERRY *        CLOUDY    50  49  97 N3        29.56R FOG
$$

IAZ004>006-015-016-023>025-035-036-180100-
   NORTH CENTRAL IOWA

CITY           SKY/WX    TMP DP  RH WIND       PRES   REMARKS
ALGONA *       FOG       43  43 100 N5        29.58R VSB 1/4
CLARION *      CLOUDY    45  45 100 E5        29.56R FOG
ESTHERVILLE    LGT RAIN  41  41 100 N5        29.59R
6HR MIN TEMP:  41; 6HR MAX TEMP:  45; 6HR PCP: TRACE;

FORT DODGE *   FOG       44  44 100 E3        29.56R VSB 3/4
MASON CITY     CLOUDY    40  39  97 NE5       29.58S FOG
6HR MIN TEMP:  38; 6HR MAX TEMP:  40; 6HR PCP:  0.03;

FOREST CITY *  CLOUDY    41  41 100 CALM      29.58R FOG
WEBSTER CITY * FOG       45  45 100 SE5       29.53S VSB 1/2
IOWA FALLS *   FOG       43  42  97 E6        29.57S VSB 1/2
$$

IAZ007>011-017>019-026>030-037>042-050>054-066-180100-
   NORTHEAST IOWA

CITY           SKY/WX    TMP DP  RH WIND       PRES   REMARKS
CEDAR RAPIDS   CLOUDY    43  43 100 SE6       29.57S FOG
6HR MIN TEMP:  39; 6HR MAX TEMP:  43; 6HR PCP:  0.02;

CHARLES CITY * CLOUDY    39  39 100 SE7       29.58F FOG     WCI  34
CLINTON *      LGT RAIN  42  40  92 SE6       29.61F FOG
DECORAH *      CLOUDY    37  37 100 CALM      29.59S FOG
DUBUQUE        LGT RAIN  39  39 100 S10       29.60S FOG     WCI  32
6HR MIN TEMP:  36; 6HR MAX TEMP:  39; 6HR PCP:  0.11;

MONTICELLO *   CLOUDY    41  41 100 SE7       29.59S FOG
OELWEIN *      FOG       39  39 100 E3        29.59F VSB 3/4
WATERLOO       FOG       40  39  97 E3        29.58S VSB 1
6HR MIN TEMP:  37; 6HR MAX TEMP:  41; 6HR PCP:  0.07;

$$

IAZ064-065-067-068-078-180100-
   EAST CENTRAL IOWA

CITY           SKY/WX    TMP DP  RH WIND       PRES   REMARKS
DAVENPORT      CLOUDY    45  42  89 S8        29.61F FOG
6HR MIN TEMP:  39; 6HR MAX TEMP:  45; 6HR PCP: TRACE;

IOWA CITY      CLOUDY    45  42  89 SE6       29.60F FOG
6HR MIN TEMP:  42; 6HR MAX TEMP:  45; 6HR PCP:  0.03;

MT. PLEASANT * CLOUDY    46  46  99 SE8       29.58F FOG
MUSCATINE *    CLOUDY    46  43  87 S6        29.59F FOG
QUAD CITIES    CLOUDY    47  41  80 E6        29.59F
6HR MIN TEMP:  41; 6HR MAX TEMP:  47; 6HR PCP:  0.01;

$$

IAZ062-063-075>077-085>089-095>099-180100-
   SOUTHEAST IOWA

CITY           SKY/WX    TMP DP  RH WIND       PRES   REMARKS
BURLINGTON     CLOUDY    48  45  89 S8        29.59S
6HR MIN TEMP:  41; 6HR MAX TEMP:  48;

FAIRFIELD *    CLOUDY    48  45  87 S9        29.56S
FORT MADISON * CLOUDY    48  45  87 SE6       29.59F
KEOKUK *       CLOUDY    54  46  76 SE12      29.58S
OSKALOOSA *    CLOUDY    46  45  96 SE8       29.56S FOG
OTTUMWA        CLOUDY    49  47  93 S8        29.56S
6HR MIN TEMP:  44; 6HR MAX TEMP:  49;

WASHINGTON *   CLOUDY    46  46 100 S8        29.58F FOG
$$

ABBREVIATIONS USED IN REMARKS
   TC - TEMPERATURES IN CELSIUS
  WCI - WIND CHILL INDEX
   HX - HEAT INDEX
  VSB - VISIBILITY
$$





USA.gov is the U.S. government's official web portal to all federal, state and local government web resources and services.